| time (UTC) | temp F | wind direction | speed knots | gust knots | rain 1hr in | rain 24hr in | rain mn in | humidity % | barometer mb |
| 20260906180917 | 93 | 135 | 2.6 | 4.3 | 0.00 | 0.00 | 0.00 | 57 | 1016.6 |
| 20260906175917 | 93 | 135 | 3.5 | 5.2 | 0.00 | 0.00 | 0.00 | 58 | 1016.9 |
| 20260906174917 | 93 | 158 | 3.5 | 4.3 | 0.00 | 0.00 | 0.00 | 63 | 1017.1 |
| 20260906173917 | 91 | 180 | 3.5 | 4.3 | 0.00 | 0.00 | 0.00 | 64 | 1017.1 |
| 20260906172937 | 91 | 180 | 3.5 | 4.3 | 0.00 | 0.00 | 0.00 | 68 | 1017.1 |
| 20260906171917 | 90 | 135 | 2.6 | 4.3 | 0.00 | 0.00 | 0.00 | 68 | 1017.4 |
| 20260906170937 | 90 | 158 | 3.5 | 4.3 | 0.00 | 0.00 | 0.00 | 66 | 1017.5 |
| 20260906165917 | 89 | 113 | 1.7 | 2.6 | 0.00 | 0.00 | 0.00 | 70 | 1017.6 |
| 20260906164957 | 89 | 90 | 1.7 | 1.7 | 0.00 | 0.00 | 0.00 | 67 | 1017.7 |
| 20260906163937 | 89 | 90 | 0.9 | 1.7 | 0.00 | 0.00 | 0.00 | 69 | 1017.5 |
| 20260906162917 | 89 | 90 | 1.7 | 2.6 | 0.00 | 0.00 | 0.00 | 69 | 1017.5 |
| 20260906161917 | 88 | 90 | 2.6 | 3.5 | 0.00 | 0.00 | 0.00 | 68 | 1017.5 |
| 20260906160917 | 88 | 90 | 1.7 | 2.6 | 0.00 | 0.00 | 0.00 | 69 | 1017.7 |
| 20260906155917 | 87 | 90 | 1.7 | 2.6 | 0.00 | 0.00 | 0.00 | 70 | 1017.7 |
| 20260906154917 | 87 | 90 | 1.7 | 2.6 | 0.00 | 0.00 | 0.00 | 69 | 1017.6 |
| 20260906153917 | 87 | 113 | 1.7 | 2.6 | 0.00 | 0.00 | 0.00 | 68 | 1017.5 |
| 20260906152917 | 87 | 90 | 2.6 | 3.5 | 0.00 | 0.00 | 0.00 | 69 | 1017.3 |
| 20260906151917 | 86 | 113 | 1.7 | 2.6 | 0.00 | 0.00 | 0.00 | 70 | 1017.2 |
| 20260906150917 | 86 | 113 | 1.7 | 2.6 | 0.00 | 0.00 | 0.00 | 72 | 1017.2 |
| 20260906145916 | 86 | 90 | 1.7 | 3.5 | 0.00 | 0.00 | 0.00 | 73 | 1017.2 |
| 20260906144917 | 85 | 90 | 2.6 | 3.5 | 0.00 | 0.00 | 0.00 | 73 | 1017.0 |
| 20260906143917 | 85 | 90 | 2.6 | 6.1 | 0.00 | 0.00 | 0.00 | 74 | 1017.1 |
| 20260906142918 | 84 | 90 | 1.7 | 3.5 | 0.00 | 0.00 | 0.00 | 76 | 1017.2 |
| 20260906141916 | 82 | 113 | 2.6 | 3.5 | 0.00 | 0.00 | 0.00 | 78 | 1017.1 |
| 20260906140916 | 81 | 45 | 3.5 | 3.5 | 0.00 | 0.00 | 0.00 | 79 | 1016.9 |
| 20260906135957 | 81 | 68 | 1.7 | 2.6 | 0.00 | 0.00 | 0.00 | 82 | 1016.9 |
| 20260906134917 | 80 | 68 | 1.7 | 2.6 | 0.00 | 0.00 | 0.00 | 83 | 1016.9 |
| 20260906133917 | 79 | 68 | 2.6 | 3.5 | 0.00 | 0.00 | 0.00 | 85 | 1016.8 |
| 20260906132936 | 78 | 90 | 1.7 | 2.6 | 0.00 | 0.00 | 0.00 | 89 | 1016.6 |
| 20260906131916 | 76 | 135 | 1.7 | 2.6 | 0.00 | 0.00 | 0.00 | 92 | 1016.5 |
| 20260906130917 | 75 | 0.0 | 0.0 | 0.00 | 0.00 | 0.00 | 93 | 1016.7 | |
| 20260906125916 | 74 | 0.0 | 0.0 | 0.00 | 0.00 | 0.00 | 93 | 1016.2 | |
| 20260906124916 | 74 | 0.0 | 0.9 | 0.00 | 0.00 | 0.00 | 93 | 1016.1 | |
| 20260906123916 | 74 | 0.0 | 0.0 | 0.00 | 0.00 | 0.00 | 94 | 1016.2 | |
| 20260906122916 | 73 | 0.0 | 0.0 | 0.00 | 0.00 | 0.00 | 94 | 1016.2 | |
| 20260906121937 | 72 | 0.0 | 0.0 | 0.00 | 0.00 | 0.00 | 93 | 1015.9 | |
| 20260906120917 | 72 | 0.0 | 0.0 | 0.00 | 0.00 | 0.00 | 93 | 1015.9 | |
| 20260906115916 | 72 | 0.0 | 0.0 | 0.00 | 0.00 | 0.00 | 93 | 1015.7 | |
| 20260906114916 | 72 | 0.0 | 0.0 | 0.00 | 0.00 | 0.00 | 93 | 1015.7 | |
| 20260906113936 | 72 | 0.0 | 0.0 | 0.00 | 0.00 | 0.00 | 93 | 1015.6 | |
| 20260906112916 | 72 | 0.0 | 0.0 | 0.00 | 0.00 | 0.00 | 92 | 1015.7 | |
| 20260906111916 | 72 | 0.0 | 0.0 | 0.00 | 0.00 | 0.00 | 92 | 1015.6 | |
| 20260906110916 | 72 | 135 | 0.9 | 1.7 | 0.00 | 0.00 | 0.00 | 92 | 1015.4 |
| 20260906105916 | 72 | 135 | 0.9 | 0.9 | 0.00 | 0.00 | 0.00 | 92 | 1015.4 |
| 20260906104916 | 72 | 0.0 | 0.9 | 0.00 | 0.00 | 0.00 | 92 | 1015.4 | |
| 20260906103916 | 72 | 0.0 | 0.0 | 0.00 | 0.00 | 0.00 | 92 | 1015.5 | |
| 20260906102916 | 72 | 0.0 | 0.0 | 0.00 | 0.00 | 0.00 | 92 | 1015.3 | |
| 20260906101936 | 72 | 0.0 | 0.9 | 0.00 | 0.00 | 0.00 | 92 | 1015.2 | |
| 20260906100916 | 72 | 0.0 | 0.0 | 0.00 | 0.00 | 0.00 | 91 | 1015.2 | |
| 20260906095916 | 73 | 0.0 | 0.9 | 0.00 | 0.00 | 0.00 | 91 | 1015.2 | |
| 20260906094916 | 73 | 135 | 0.9 | 0.9 | 0.00 | 0.00 | 0.00 | 91 | 1015.3 |
| 20260906093916 | 73 | 0.0 | 0.0 | 0.00 | 0.00 | 0.00 | 90 | 1015.2 | |
| 20260906092916 | 73 | 0.0 | 0.0 | 0.00 | 0.00 | 0.00 | 90 | 1015.1 | |
| 20260906091936 | 73 | 135 | 1.7 | 1.7 | 0.00 | 0.00 | 0.00 | 90 | 1015.4 |
| 20260906090916 | 73 | 0.0 | 0.9 | 0.00 | 0.00 | 0.00 | 89 | 1015.2 | |
| 20260906085916 | 74 | 0.0 | 0.0 | 0.00 | 0.00 | 0.00 | 89 | 1015.5 | |
| 20260906084936 | 74 | 135 | 1.7 | 2.6 | 0.00 | 0.00 | 0.00 | 89 | 1015.3 |
| 20260906083916 | 74 | 0.0 | 0.0 | 0.00 | 0.00 | 0.00 | 88 | 1015.3 | |
| 20260906082916 | 74 | 0.0 | 0.0 | 0.00 | 0.00 | 0.00 | 88 | 1015.2 | |
| 20260906081956 | 75 | 0.0 | 0.9 | 0.00 | 0.00 | 0.00 | 87 | 1015.0 | |
| 20260906080916 | 75 | 0.0 | 0.9 | 0.00 | 0.00 | 0.00 | 87 | 1015.1 | |
| 20260906075936 | 75 | 135 | 0.9 | 1.7 | 0.00 | 0.00 | 0.00 | 86 | 1015.0 |
| 20260906074916 | 76 | 0.0 | 0.0 | 0.00 | 0.00 | 0.00 | 85 | 1014.9 | |
| 20260906073916 | 76 | 135 | 0.9 | 1.7 | 0.00 | 0.00 | 0.00 | 85 | 1014.8 |
| 20260906072936 | 77 | 0.0 | 0.0 | 0.00 | 0.00 | 0.00 | 84 | 1014.8 | |
| 20260906071916 | 77 | 0.0 | 0.0 | 0.00 | 0.00 | 0.00 | 83 | 1015.0 | |
| 20260906070915 | 77 | 0.0 | 0.0 | 0.00 | 0.00 | 0.00 | 83 | 1015.1 | |
| 20260906065916 | 78 | 0.0 | 0.0 | 0.00 | 0.00 | 0.00 | 82 | 1015.2 | |
| 20260906064936 | 78 | 135 | 0.9 | 0.9 | 0.00 | 0.00 | 0.00 | 82 | 1015.3 |
| 20260906063916 | 78 | 135 | 1.7 | 1.7 | 0.00 | 0.00 | 0.00 | 80 | 1015.3 |
| 20260906062916 | 79 | 135 | 1.7 | 1.7 | 0.00 | 0.00 | 0.00 | 79 | 1015.5 |
| 20260906061936 | 80 | 0.0 | 0.9 | 0.00 | 0.00 | 0.00 | 78 | 1015.3 | |
| 20260906060916 | 80 | 135 | 0.9 | 0.9 | 0.00 | 0.00 | 0.00 | 77 | 1015.5 |
| 20260906055916 | 81 | 135 | 0.9 | 1.7 | 0.00 | 0.00 | 0.00 | 77 | 1015.4 |
| 20260906054915 | 81 | 135 | 0.9 | 1.7 | 0.00 | 0.00 | 0.00 | 76 | 1015.3 |
| 20260906053915 | 81 | 0.0 | 0.9 | 0.00 | 0.00 | 0.00 | 76 | 1015.2 | |
| 20260906052915 | 81 | 135 | 1.7 | 2.6 | 0.00 | 0.00 | 0.00 | 76 | 1015.2 |
| 20260906051956 | 81 | 135 | 1.7 | 2.6 | 0.00 | 0.00 | 0.00 | 76 | 1015.2 |
| 20260906050936 | 81 | 135 | 0.9 | 1.7 | 0.00 | 0.00 | 0.00 | 76 | 1015.3 |
| 20260906045936 | 81 | 158 | 1.7 | 1.7 | 0.00 | 0.00 | 0.00 | 76 | 1015.0 |
| 20260906044916 | 81 | 158 | 1.7 | 2.6 | 0.00 | 0.00 | 0.00 | 76 | 1015.1 |
| 20260906043916 | 81 | 0.0 | 0.0 | 0.00 | 0.00 | 0.00 | 76 | 1015.2 | |
| 20260906042916 | 81 | 0.0 | 0.0 | 0.00 | 0.00 | 0.00 | 76 | 1015.0 | |
| 20260906041916 | 81 | 158 | 0.9 | 1.7 | 0.00 | 0.00 | 0.00 | 77 | 1015.1 |
| 20260906040916 | 81 | 0.0 | 0.9 | 0.00 | 0.00 | 0.00 | 77 | 1015.0 | |
| 20260906035916 | 82 | 0.0 | 0.0 | 0.00 | 0.00 | 0.00 | 78 | 1014.9 | |
| 20260906034916 | 82 | 0.0 | 0.0 | 0.00 | 0.00 | 0.00 | 76 | 1015.0 | |
| 20260906033936 | 82 | 0.0 | 0.0 | 0.00 | 0.00 | 0.00 | 76 | 1014.9 | |
| 20260906032916 | 82 | 0.0 | 0.0 | 0.00 | 0.00 | 0.00 | 76 | 1014.9 | |
| 20260906031916 | 83 | 0.0 | 0.0 | 0.00 | 0.00 | 0.00 | 76 | 1014.7 | |
| 20260906030916 | 83 | 158 | 0.9 | 0.9 | 0.00 | 0.00 | 0.00 | 76 | 1014.6 |
| 20260906025916 | 83 | 0.0 | 0.9 | 0.00 | 0.00 | 0.00 | 76 | 1014.5 | |
| 20260906024916 | 83 | 0.0 | 0.0 | 0.00 | 0.00 | 0.00 | 76 | 1014.4 | |
| 20260906023916 | 83 | 0.0 | 0.0 | 0.00 | 0.00 | 0.00 | 76 | 1014.2 | |
| 20260906022916 | 84 | 0.0 | 0.0 | 0.00 | 0.00 | 0.00 | 75 | 1014.1 | |
| 20260906021916 | 84 | 0.0 | 0.0 | 0.00 | 0.00 | 0.00 | 76 | 1014.0 | |
| 20260906020916 | 84 | 0.0 | 0.0 | 0.00 | 0.00 | 0.00 | 74 | 1013.8 | |
| 20260906015916 | 85 | 0.0 | 0.0 | 0.00 | 0.00 | 0.00 | 74 | 1013.5 | |
| 20260906014956 | 86 | 0.0 | 0.0 | 0.00 | 0.00 | 0.00 | 76 | 1013.6 | |
| 20260906013916 | 86 | 0.0 | 0.0 | 0.00 | 0.00 | 0.00 | 74 | 1013.4 | |
| 20260906012916 | 87 | 0.0 | 0.0 | 0.00 | 0.00 | 0.00 | 71 | 1013.4 | |
| 20260906011916 | 87 | 158 | 0.9 | 0.9 | 0.00 | 0.00 | 0.00 | 68 | 1013.3 |
| 20260906010916 | 88 | 0.0 | 0.9 | 0.00 | 0.00 | 0.00 | 67 | 1013.1 | |
| 20260906005916 | 88 | 158 | 0.9 | 0.9 | 0.00 | 0.00 | 0.00 | 66 | 1013.1 |
| 20260906004916 | 89 | 158 | 1.7 | 1.7 | 0.00 | 0.00 | 0.00 | 65 | 1013.4 |
| 20260906003916 | 90 | 158 | 0.9 | 0.9 | 0.00 | 0.00 | 0.00 | 63 | 1013.2 |
| 20260906002916 | 91 | 23 | 0.9 | 1.7 | 0.00 | 0.00 | 0.00 | 62 | 1013.4 |
| 20260906001956 | 92 | 0.0 | 0.0 | 0.00 | 0.00 | 0.00 | 61 | 1013.5 | |
| 20260906000936 | 93 | 0.0 | 0.0 | 0.00 | 0.00 | 0.00 | 60 | 1013.5 | |
| 20260905235935 | 94 | 0.0 | 0.0 | 0.00 | 0.00 | 0.00 | 59 | 1013.5 | |
| 20260905234915 | 95 | 90 | 0.9 | 0.9 | 0.00 | 0.00 | 0.00 | 58 | 1013.7 |
| 20260905233935 | 95 | 90 | 0.9 | 1.7 | 0.00 | 0.00 | 0.00 | 57 | 1013.7 |
| 20260905232915 | 95 | 90 | 0.9 | 1.7 | 0.00 | 0.00 | 0.00 | 56 | 1013.5 |
| 20260905231916 | 95 | 113 | 1.7 | 1.7 | 0.00 | 0.00 | 0.00 | 55 | 1013.4 |
| 20260905230915 | 94 | 113 | 1.7 | 2.6 | 0.00 | 0.00 | 0.00 | 60 | 1013.6 |
| 20260905225915 | 93 | 113 | 0.9 | 1.7 | 0.00 | 0.00 | 0.00 | 63 | 1013.6 |
| 20260905224936 | 93 | 113 | 0.9 | 1.7 | 0.00 | 0.00 | 0.00 | 60 | 1013.6 |
| 20260905223915 | 93 | 113 | 1.7 | 1.7 | 0.00 | 0.00 | 0.00 | 62 | 1013.6 |
| 20260905222915 | 94 | 113 | 0.9 | 1.7 | 0.00 | 0.00 | 0.00 | 61 | 1013.7 |
| 20260905221916 | 94 | 113 | 1.7 | 2.6 | 0.00 | 0.00 | 0.00 | 57 | 1013.7 |
| 20260905220915 | 95 | 135 | 0.9 | 2.6 | 0.00 | 0.00 | 0.00 | 55 | 1013.8 |
| 20260905215916 | 95 | 135 | 1.7 | 2.6 | 0.00 | 0.00 | 0.00 | 54 | 1013.6 |
| 20260905214916 | 95 | 90 | 1.7 | 3.5 | 0.00 | 0.00 | 0.00 | 58 | 1013.8 |
| 20260905213915 | 95 | 90 | 1.7 | 3.5 | 0.00 | 0.00 | 0.00 | 54 | 1013.8 |
| 20260905212935 | 95 | 90 | 2.6 | 3.5 | 0.00 | 0.00 | 0.00 | 52 | 1014.1 |
| 20260905211915 | 95 | 90 | 2.6 | 3.5 | 0.00 | 0.00 | 0.00 | 51 | 1014.2 |
| 20260905210915 | 96 | 90 | 2.6 | 3.5 | 0.00 | 0.00 | 0.00 | 48 | 1014.3 |
| 20260905205915 | 97 | 68 | 3.5 | 4.3 | 0.00 | 0.00 | 0.00 | 49 | 1014.5 |
| 20260905204935 | 98 | 113 | 1.7 | 1.7 | 0.00 | 0.00 | 0.00 | 47 | 1014.6 |
| 20260905203915 | 99 | 180 | 3.5 | 5.2 | 0.00 | 0.00 | 0.00 | 45 | 1014.8 |
| 20260905202938 | 99 | 113 | 2.6 | 3.5 | 0.00 | 0.00 | 0.00 | 44 | 1014.9 |
| 20260905201917 | 99 | 180 | 2.6 | 2.6 | 0.00 | 0.00 | 0.00 | 46 | 1015.1 |
| 20260905200917 | 99 | 180 | 6.1 | 7.8 | 0.00 | 0.00 | 0.00 | 43 | 1015.3 |
| 20260905195917 | 99 | 90 | 3.5 | 5.2 | 0.00 | 0.00 | 0.00 | 46 | 1015.4 |
| 20260905194917 | 99 | 158 | 3.5 | 4.3 | 0.00 | 0.00 | 0.00 | 45 | 1015.5 |
| 20260905193917 | 98 | 113 | 3.5 | 6.1 | 0.00 | 0.00 | 0.00 | 46 | 1015.5 |
| 20260905192917 | 99 | 135 | 1.7 | 2.6 | 0.00 | 0.00 | 0.00 | 44 | 1015.5 |
| 20260905191957 | 99 | 135 | 3.5 | 4.3 | 0.00 | 0.00 | 0.00 | 44 | 1015.6 |
| 20260905190937 | 98 | 113 | 1.7 | 3.5 | 0.00 | 0.00 | 0.00 | 46 | 1015.7 |
| 20260905185917 | 98 | 90 | 4.3 | 6.1 | 0.00 | 0.00 | 0.00 | 48 | 1015.9 |
| 20260905184917 | 99 | 135 | 2.6 | 6.1 | 0.00 | 0.00 | 0.00 | 45 | 1015.8 |
| 20260905183917 | 98 | 135 | 1.7 | 4.3 | 0.00 | 0.00 | 0.00 | 45 | 1015.7 |
| 20260905182917 | 98 | 135 | 7.0 | 9.6 | 0.00 | 0.00 | 0.00 | 48 | 1015.8 |
| 20260905181937 | 97 | 113 | 6.1 | 8.7 | 0.00 | 0.00 | 0.00 | 48 | 1015.9 |